Historia de Miami, FL

Viernes, Enero 13, 2017 — View Current Conditions

Jump to Data:

Date:
Airport Code:
Recently Viewed Airport Codes: KMIA
Daily Summary
  Actual Average Record
Temperature
Temperatura media 77° F / 25° C 68° F / 20° C  
Temperatura máxima 82° F / 28° C 76° F / 24° C 84° F / 28° C (1993)
Temperatura mínima 72° F / 22° C 60° F / 16° C 32° F / 0° C (1981)
Degree Days
Grados día de calefacción 0 2  
Month to date heating degree days 6 26  
Since 1 July heating degree days 6 63  
Cooling Degree Days 12 5  
Month to date cooling degree days 116 65  
Year to date cooling degree days 116 65  
Growing Degree Days 27 (Base 50)    
Moisture
Punto de rocío 61° F / 16° C    
Average Humidity 65    
Maximum Humidity 79    
Minimum Humidity 50    
Precipitación
Precipitación T pul / T cm 0.05 pul / 1.27 cm 1.57 pul / 3.99 cm (1948)
Month to date precipitation 1.48 0.66  
Year to date precipitation 1.48 0.66  
Nieve
Nieve 0.00 pul / 0.00 cm pul / cm pul / cm ()
Month to date snowfall 0.0  
Since 1 July snowfall 0.0  
Grosos de nieve 0.00 pul / 0.00 cm    
Presión al nivel del mar
Presión al nivel del mar 30.33 pul / 1027 hPa    
Viento
Velocidad del viento 12 mph / 19 km/h (Este)    
Velocidad máxima del viento 22 mph / 35 km/h    
Max Gust Speed 28 mph / 45 km/h    
Visibilidad 10 Millas / 16 Kilómetros    
Eventos Lluvia    
T = Trace of Precipitation, MM = Missing Value Source: NWS Daily Summary

Mostrar METARS completo

(help) - Comma Delimited File

Hourly Observations

Hora(EST) Temperatura Punto de rocío Humedad Presión al nivel del mar Visibilidad Dirección del viento Velocidad del viento Velocidad de ráfagas Precipitación Eventos Condiciones
12:53 AM 73.0° F / 22.8° C 64.0° F / 17.8° C 73% 30.29 pul / 1025.7 hPa 10.0 Millas / 16.1 Kilómetros Este 9.2 mph / 14.8 km/h - N/A   Parcialmente nublado
1:53 AM 72.0° F / 22.2° C 64.0° F / 17.8° C 76% 30.30 pul / 1025.8 hPa 10.0 Millas / 16.1 Kilómetros Este 6.9 mph / 11.1 km/h - N/A   Nubes dispersas
2:53 AM 73.0° F / 22.8° C 64.9° F / 18.3° C 76% 30.29 pul / 1025.6 hPa 10.0 Millas / 16.1 Kilómetros Este 8.1 mph / 13.0 km/h - N/A   Muy nublado
3:53 AM 73.0° F / 22.8° C 64.9° F / 18.3° C 76% 30.29 pul / 1025.7 hPa 10.0 Millas / 16.1 Kilómetros Este 10.4 mph / 16.7 km/h - 0.00 pul / 0.0 cm   Nublado
4:53 AM 73.0° F / 22.8° C 66.0° F / 18.9° C 79% 30.29 pul / 1025.7 hPa 7.0 Millas / 11.3 Kilómetros ENE 12.7 mph / 20.4 km/h - 0.00 pul / 0.0 cm Lluvia Lluvia débil
5:53 AM 73.0° F / 22.8° C 66.0° F / 18.9° C 79% 30.30 pul / 1025.9 hPa 10.0 Millas / 16.1 Kilómetros Este 10.4 mph / 16.7 km/h - 0.00 pul / 0.0 cm   Muy nublado
6:53 AM 73.9° F / 23.3° C 63.0° F / 17.2° C 68% 30.32 pul / 1026.6 hPa 10.0 Millas / 16.1 Kilómetros Este 12.7 mph / 20.4 km/h - N/A   Muy nublado
7:53 AM 73.9° F / 23.3° C 62.1° F / 16.7° C 66% 30.34 pul / 1027.3 hPa 10.0 Millas / 16.1 Kilómetros Este 11.5 mph / 18.5 km/h - N/A   Nubes dispersas
8:53 AM 78.1° F / 25.6° C 59.0° F / 15.0° C 52% 30.37 pul / 1028.2 hPa 10.0 Millas / 16.1 Kilómetros Este 19.6 mph / 31.5 km/h - N/A   Nubes dispersas
9:53 AM 79.0° F / 26.1° C 60.1° F / 15.6° C 52% 30.38 pul / 1028.7 hPa 10.0 Millas / 16.1 Kilómetros Este 20.7 mph / 33.3 km/h - N/A   Nubes dispersas
10:53 AM 79.0° F / 26.1° C 59.0° F / 15.0° C 50% 30.38 pul / 1028.7 hPa 10.0 Millas / 16.1 Kilómetros Este 16.1 mph / 25.9 km/h - N/A   Nubes dispersas
11:53 AM 80.1° F / 26.7° C 61.0° F / 16.1° C 52% 30.36 pul / 1027.9 hPa 10.0 Millas / 16.1 Kilómetros Este 13.8 mph / 22.2 km/h 21.9 mph / 35.2 km/h N/A   Muy nublado
12:53 PM 78.1° F / 25.6° C 61.0° F / 16.1° C 56% 30.34 pul / 1027.2 hPa 10.0 Millas / 16.1 Kilómetros ENE 13.8 mph / 22.2 km/h 24.2 mph / 38.9 km/h N/A   Muy nublado
1:53 PM 79.0° F / 26.1° C 61.0° F / 16.1° C 54% 30.32 pul / 1026.7 hPa 10.0 Millas / 16.1 Kilómetros ENE 12.7 mph / 20.4 km/h - N/A   Muy nublado
2:53 PM 78.1° F / 25.6° C 60.1° F / 15.6° C 54% 30.32 pul / 1026.7 hPa 10.0 Millas / 16.1 Kilómetros Este 16.1 mph / 25.9 km/h 21.9 mph / 35.2 km/h N/A   Muy nublado
3:53 PM 80.1° F / 26.7° C 61.0° F / 16.1° C 52% 30.32 pul / 1026.7 hPa 10.0 Millas / 16.1 Kilómetros ENE 12.7 mph / 20.4 km/h - N/A   Muy nublado
4:53 PM 77.0° F / 25.0° C 62.1° F / 16.7° C 60% 30.33 pul / 1027.1 hPa 10.0 Millas / 16.1 Kilómetros ENE 12.7 mph / 20.4 km/h - 0.00 pul / 0.0 cm   Muy nublado
5:53 PM 77.0° F / 25.0° C 57.9° F / 14.4° C 52% 30.34 pul / 1027.2 hPa 10.0 Millas / 16.1 Kilómetros Este 13.8 mph / 22.2 km/h - N/A   Muy nublado
6:53 PM 75.0° F / 23.9° C 57.9° F / 14.4° C 55% 30.34 pul / 1027.3 hPa 10.0 Millas / 16.1 Kilómetros Este 10.4 mph / 16.7 km/h - N/A   Nubes dispersas
7:53 PM 75.9° F / 24.4° C 57.9° F / 14.4° C 54% 30.35 pul / 1027.7 hPa 10.0 Millas / 16.1 Kilómetros ENE 6.9 mph / 11.1 km/h - N/A   Nubes dispersas
8:53 PM 75.9° F / 24.4° C 57.9° F / 14.4° C 54% 30.36 pul / 1027.9 hPa 10.0 Millas / 16.1 Kilómetros Este 8.1 mph / 13.0 km/h - N/A   Parcialmente nublado
9:53 PM 75.0° F / 23.9° C 59.0° F / 15.0° C 57% 30.36 pul / 1028.1 hPa 10.0 Millas / 16.1 Kilómetros NE 3.5 mph / 5.6 km/h - N/A   Nubes dispersas
10:53 PM 75.9° F / 24.4° C 60.1° F / 15.6° C 58% 30.36 pul / 1028.0 hPa 10.0 Millas / 16.1 Kilómetros ENE 8.1 mph / 13.0 km/h - 0.00 pul / 0.0 cm Lluvia Lluvia débil
11:53 PM 73.0° F / 22.8° C 63.0° F / 17.2° C 71% 30.35 pul / 1027.6 hPa 10.0 Millas / 16.1 Kilómetros Este 13.8 mph / 22.2 km/h - 0.00 pul / 0.0 cm Lluvia Lluvia débil